| time (UTC) | temp C | wind direction | speed KPH | gust KPH | rain 1hr cm | rain 24hr cm | rain mn cm | humidity % | barometer mb |
| 20260507183109 | 13 | 220 | 19.3 | 0.0 | 0.00 | 0.00 | 0.58 | 76 | 1005.0 |
| 20260507181546 | 13 | 287 | 19.3 | 0.0 | 0.00 | 0.00 | 0.58 | 78 | 1005.3 |
| 20260507180045 | 13 | 238 | 19.3 | 0.0 | 0.00 | 0.00 | 0.58 | 77 | 1005.4 |
| 20260507174552 | 13 | 261 | 14.5 | 0.0 | 0.00 | 0.00 | 0.58 | 78 | 1005.3 |
| 20260507173048 | 13 | 315 | 14.5 | 0.0 | 0.00 | 0.00 | 0.58 | 80 | 1005.7 |
| 20260507171546 | 12 | 240 | 16.1 | 0.0 | 0.00 | 0.00 | 0.58 | 77 | 1005.7 |
| 20260507170045 | 13 | 286 | 12.9 | 0.0 | 0.00 | 0.00 | 0.56 | 74 | 1006.0 |
| 20260507164603 | 13 | 307 | 11.3 | 0.0 | 0.00 | 0.00 | 0.56 | 74 | 1006.1 |
| 20260507163047 | 14 | 281 | 6.4 | 0.0 | 0.00 | 0.00 | 0.56 | 77 | 1006.0 |
| 20260507161552 | 15 | 257 | 4.8 | 0.0 | 0.00 | 0.00 | 0.56 | 71 | 1006.1 |
| 20260507160042 | 16 | 263 | 4.8 | 0.0 | 0.00 | 0.00 | 0.56 | 63 | 1006.2 |
| 20260507154539 | 15 | 294 | 1.6 | 0.0 | 0.00 | 0.00 | 0.56 | 63 | 1006.6 |
| 20260507153041 | 15 | 97 | 3.2 | 0.0 | 0.00 | 0.00 | 0.56 | 70 | 1006.7 |
| 20260507151536 | 14 | 285 | 4.8 | 0.0 | 0.00 | 0.00 | 0.56 | 66 | 1006.8 |
| 20260507150034 | 13 | 140 | 1.6 | 0.0 | 0.00 | 0.00 | 0.56 | 74 | 1006.8 |
| 20260507144534 | 12 | 43 | 1.6 | 0.0 | 0.00 | 0.00 | 0.56 | 84 | 1006.7 |
| 20260507143027 | 11 | 325 | 1.6 | 0.0 | 0.00 | 0.00 | 0.56 | 85 | 1006.8 |
| 20260507141523 | 11 | 285 | 3.2 | 0.0 | 0.00 | 0.00 | 0.56 | 87 | 1007.0 |
| 20260507140023 | 11 | 278 | 4.8 | 0.0 | 0.00 | 0.00 | 0.56 | 88 | 1007.1 |
| 20260507134522 | 10 | 274 | 1.6 | 0.0 | 0.00 | 0.00 | 0.56 | 90 | 1006.9 |
| 20260507133025 | 10 | 284 | 1.6 | 0.0 | 0.00 | 0.00 | 0.56 | 89 | 1007.1 |
| 20260507131520 | 10 | 286 | 0.0 | 0.0 | 0.00 | 0.00 | 0.56 | 90 | 1007.2 |
| 20260507130020 | 9 | 286 | 0.0 | 0.0 | 0.00 | 0.00 | 0.56 | 90 | 1007.1 |
| 20260507124521 | 8 | 49 | 0.0 | 0.0 | 0.00 | 0.00 | 0.56 | 90 | 1007.0 |
| 20260507123021 | 8 | 286 | 1.6 | 0.0 | 0.00 | 0.00 | 0.56 | 91 | 1007.3 |
| 20260507121518 | 8 | 279 | 0.0 | 0.0 | 0.00 | 0.00 | 0.56 | 90 | 1007.3 |
| 20260507120018 | 8 | 308 | 0.0 | 0.0 | 0.00 | 0.00 | 0.53 | 90 | 1007.1 |
| 20260507114517 | 8 | 273 | 0.0 | 0.0 | 0.00 | 0.00 | 0.53 | 90 | 1007.2 |
| 20260507113035 | 8 | 266 | 0.0 | 0.0 | 0.00 | 0.00 | 0.51 | 90 | 1007.1 |
| 20260507111514 | 8 | 270 | 1.6 | 0.0 | 0.00 | 0.00 | 0.48 | 91 | 1007.4 |
| 20260507110015 | 8 | 298 | 1.6 | 0.0 | 0.00 | 0.00 | 0.43 | 91 | 1006.3 |
| 20260507104508 | 9 | 317 | 0.0 | 0.0 | 0.00 | 0.00 | 0.43 | 91 | 1006.1 |
| 20260507103005 | 9 | 281 | 1.6 | 0.0 | 0.00 | 0.00 | 0.43 | 91 | 1006.6 |
| 20260507101508 | 10 | 244 | 1.6 | 0.0 | 0.00 | 0.00 | 0.43 | 92 | 1005.9 |
| 20260507100002 | 10 | 104 | 1.6 | 0.0 | 0.00 | 0.00 | 0.41 | 91 | 1005.5 |
| 20260507094607 | 10 | 194 | 1.6 | 0.0 | 0.00 | 0.00 | 0.38 | 91 | 1005.9 |
| 20260507093056 | 10 | 223 | 0.0 | 0.0 | 0.00 | 0.00 | 0.36 | 92 | 1005.6 |
| 20260507091617 | 11 | 275 | 3.2 | 0.0 | 0.00 | 0.00 | 0.33 | 92 | 1005.8 |
| 20260507090053 | 11 | 75 | 0.0 | 0.0 | 0.00 | 0.00 | 0.28 | 92 | 1005.3 |
| 20260507084604 | 12 | 294 | 0.0 | 0.0 | 0.00 | 0.00 | 0.23 | 92 | 1005.6 |
| 20260507083052 | 11 | 281 | 0.0 | 0.0 | 0.00 | 0.00 | 0.18 | 92 | 1005.5 |
| 20260507081557 | 11 | 274 | 6.4 | 0.0 | 0.00 | 0.00 | 0.05 | 92 | 1005.6 |
| 20260507080050 | 11 | 269 | 4.8 | 0.0 | 0.00 | 0.00 | 0.00 | 92 | 1004.9 |
| 20260507074555 | 11 | 282 | 3.2 | 0.0 | 0.00 | 0.00 | 0.00 | 92 | 1004.5 |
| 20260507073052 | 11 | 280 | 4.8 | 0.0 | 0.00 | 0.00 | 0.00 | 92 | 1004.5 |
| 20260507071546 | 11 | 264 | 4.8 | 0.0 | 0.00 | 0.00 | 0.00 | 92 | 1004.6 |
| 20260507070046 | 11 | 235 | 3.2 | 0.0 | 0.00 | 0.00 | 0.00 | 92 | 1005.0 |
| 20260507064548 | 11 | 274 | 3.2 | 0.0 | 0.00 | 0.00 | 0.00 | 92 | 1005.0 |
| 20260507063045 | 11 | 268 | 3.2 | 0.0 | 0.00 | 0.00 | 0.00 | 92 | 1004.7 |
| 20260507061542 | 12 | 276 | 3.2 | 0.0 | 0.00 | 0.00 | 0.00 | 92 | 1005.2 |
| 20260507060040 | 11 | 241 | 3.2 | 0.0 | 0.00 | 0.00 | 0.00 | 92 | 1005.3 |
| 20260507054539 | 11 | 262 | 4.8 | 0.0 | 0.00 | 0.00 | 0.00 | 92 | 1005.4 |
| 20260507053038 | 11 | 277 | 6.4 | 0.0 | 0.00 | 0.00 | 0.00 | 92 | 1005.7 |
| 20260507051536 | 11 | 271 | 6.4 | 0.0 | 0.00 | 0.00 | 0.00 | 92 | 1005.9 |
| 20260507050035 | 11 | 267 | 8.0 | 0.0 | 0.00 | 0.00 | 0.00 | 92 | 1006.0 |
| 20260507044534 | 11 | 273 | 11.3 | 0.0 | 0.00 | 0.00 | 0.00 | 92 | 1006.0 |
| 20260507043041 | 11 | 283 | 12.9 | 0.0 | 0.00 | 0.00 | 0.00 | 92 | 1005.9 |
| 20260507041531 | 11 | 273 | 14.5 | 0.0 | 0.00 | 0.00 | 0.00 | 92 | 1005.9 |
| 20260507040029 | 11 | 254 | 16.1 | 0.0 | 0.00 | 0.00 | 0.00 | 92 | 1006.2 |
| 20260507034534 | 11 | 262 | 17.7 | 0.0 | 0.00 | 0.00 | 0.20 | 92 | 1006.1 |
| 20260507033029 | 12 | 259 | 17.7 | 0.0 | 0.00 | 0.00 | 0.20 | 92 | 1006.4 |
| 20260507031528 | 11 | 277 | 20.9 | 0.0 | 0.00 | 0.00 | 0.20 | 92 | 1006.1 |
| 20260507030028 | 11 | 254 | 20.9 | 0.0 | 0.00 | 0.00 | 0.20 | 92 | 1006.1 |
| 20260507024525 | 12 | 231 | 19.3 | 0.0 | 0.00 | 0.00 | 0.20 | 91 | 1006.1 |
| 20260507023022 | 12 | 242 | 19.3 | 0.0 | 0.00 | 0.00 | 0.20 | 91 | 1006.3 |
| 20260507021522 | 12 | 263 | 19.3 | 0.0 | 0.00 | 0.00 | 0.20 | 91 | 1006.5 |
| 20260507020027 | 12 | 286 | 19.3 | 0.0 | 0.00 | 0.00 | 0.20 | 91 | 1006.8 |
| 20260507014518 | 12 | 250 | 20.9 | 0.0 | 0.00 | 0.00 | 0.20 | 91 | 1006.8 |
| 20260507013022 | 12 | 240 | 17.7 | 0.0 | 0.00 | 0.00 | 0.20 | 91 | 1007.2 |
| 20260507011528 | 12 | 248 | 19.3 | 0.0 | 0.00 | 0.00 | 0.20 | 91 | 1007.2 |
| 20260507010017 | 12 | 240 | 20.9 | 0.0 | 0.00 | 0.00 | 0.20 | 91 | 1007.3 |
| 20260507004515 | 12 | 279 | 19.3 | 0.0 | 0.00 | 0.00 | 0.18 | 91 | 1007.3 |
| 20260507003014 | 12 | 292 | 17.7 | 0.0 | 0.00 | 0.00 | 0.18 | 91 | 1007.1 |
| 20260507001543 | 12 | 299 | 19.3 | 0.0 | 0.00 | 0.00 | 0.18 | 91 | 1007.1 |
| 20260507000016 | 12 | 269 | 20.9 | 0.0 | 0.00 | 0.00 | 0.18 | 91 | 1006.9 |
| 20260506234512 | 12 | 257 | 20.9 | 0.0 | 0.00 | 0.00 | 0.18 | 91 | 1006.9 |
| 20260506233011 | 12 | 239 | 19.3 | 0.0 | 0.00 | 0.00 | 0.15 | 91 | 1006.9 |
| 20260506231507 | 12 | 240 | 24.1 | 0.0 | 0.00 | 0.00 | 0.13 | 91 | 1006.9 |
| 20260506230005 | 12 | 321 | 22.5 | 0.0 | 0.00 | 0.00 | 0.10 | 90 | 1007.0 |
| 20260506224503 | 12 | 248 | 22.5 | 0.0 | 0.00 | 0.00 | 0.05 | 89 | 1007.2 |
| 20260506223001 | 12 | 227 | 22.5 | 0.0 | 0.00 | 0.00 | 0.05 | 88 | 1007.4 |
| 20260506221617 | 12 | 240 | 22.5 | 0.0 | 0.00 | 0.00 | 0.03 | 88 | 1007.6 |
| 20260506220101 | 13 | 265 | 20.9 | 0.0 | 0.00 | 0.00 | 0.03 | 87 | 1007.5 |
| 20260506214559 | 13 | 244 | 20.9 | 0.0 | 0.00 | 0.00 | 0.00 | 85 | 1007.5 |
| 20260506213103 | 13 | 269 | 19.3 | 0.0 | 0.00 | 0.00 | 0.00 | 86 | 1007.7 |
| 20260506211555 | 13 | 224 | 19.3 | 0.0 | 0.00 | 0.00 | 0.00 | 86 | 1007.9 |
| 20260506210058 | 13 | 261 | 20.9 | 0.0 | 0.00 | 0.00 | 0.00 | 85 | 1008.0 |
| 20260506204556 | 13 | 274 | 19.3 | 0.0 | 0.00 | 0.00 | 0.00 | 85 | 1008.1 |
| 20260506203110 | 13 | 265 | 22.5 | 0.0 | 0.00 | 0.00 | 0.00 | 85 | 1008.2 |
| 20260506201551 | 13 | 271 | 19.3 | 0.0 | 0.00 | 0.00 | 0.00 | 83 | 1008.3 |
| 20260506200055 | 13 | 281 | 19.3 | 0.0 | 0.00 | 0.00 | 0.00 | 83 | 1008.5 |
| 20260506194549 | 13 | 289 | 22.5 | 0.0 | 0.00 | 0.00 | 0.00 | 82 | 1008.6 |
| 20260506193051 | 14 | 292 | 22.5 | 0.0 | 0.00 | 0.00 | 0.00 | 82 | 1008.9 |
| 20260506191547 | 13 | 207 | 22.5 | 0.0 | 0.00 | 0.00 | 0.00 | 82 | 1008.9 |
| 20260506190050 | 14 | 229 | 20.9 | 0.0 | 0.00 | 0.00 | 0.00 | 81 | 1008.9 |
| 20260506184548 | 14 | 244 | 20.9 | 0.0 | 0.00 | 0.00 | 0.00 | 80 | 1009.0 |